This demonstration page uses our WeatherBlox Daily Observations layout. Learn more.

Left ArrowRight Arrow

Hourly Observations for February 11, 2021

Temp ( °F °C ) Dew Point ( °F °C ) Humidity (%) Winds ( mph kmh ) Pressure ( in mb ) Visibility ( mi km ) Precip ( " mm )
12:54 am 00:54 Clear 0 -17.8 -7 -21.7 72 72 N 9 15 30.55 1035 10 16.0934 0 0
1:54 am 01:54 Mostly Cloudy 1 -17.2 -6 -21.1 72 72 N 8 13 30.56 1035 10 16.0934 0 0
2:54 am 02:54 Mostly Clear 2 -16.7 -5 -20.6 72 72 N 9 15 30.57 1035 10 16.0934 0 0
3:54 am 03:54 Clear 2 -16.7 -5 -20.6 72 72 NNE 9 15 30.54 1034 10 16.0934 0 0
4:54 am 04:54 Partly Cloudy 1 -17.2 -6 -21.1 72 72 NNE 6 9 30.56 1035 10 16.0934 0 0
5:54 am 05:54 Clear 2 -16.7 -5 -20.6 72 72 N 5 7 30.57 1035 10 16.0934 0 0
6:54 am 06:54 Mostly Clear -1 -18.3 -7 -21.7 75 75 NNE 5 7 30.57 1035 10 16.0934 0 0
7:54 am 07:54 Sunny 1 -17.2 -5 -20.6 75 75 N 5 7 30.59 1036 10 16.0934 0 0
8:54 am 08:54 Mostly Sunny 5 -15 -6 -21.1 60 60 ENE 8 13 30.6 1036 10 16.0934 0 0
9:54 am 09:54 Cloudy 6 -14.4 -5 -20.6 60 60 ENE 6 9 30.61 1037 10 16.0934 0 0
10:54 am 10:54 Cloudy 7 -13.9 -4 -20 60 60 NE 10 17 30.61 1037 10 16.0934 0 0
11:54 am 11:54 Cloudy 9 -12.8 -2 -18.9 61 61 ENE 13 20 30.59 1036 10 16.0934 0 0
12:30 pm 12:30 Partly Cloudy 8 -13.3 -3 -19.4 60 60 NE 12 19 30.62 1037 10 16.0934 0 0
12:54 pm 12:54 Partly Cloudy 9 -12.8 -2 -18.9 61 61 NE 13 20 30.56 1035 10 16.0934 0 0
1:54 pm 13:54 Cloudy 9 -12.8 -2 -18.9 61 61 NE 13 20 30.55 1035 10 16.0934 0 0
2:54 pm 14:54 Partly Cloudy 8 -13.3 -3 -19.4 60 60 NNE 15 24 30.54 1034 10 16.0934 0 0
3:54 pm 15:54 Partly Cloudy 7 -13.9 -3 -19.4 63 63 NNE 16 26 30.55 1035 10 16.0934 0 0
4:54 pm 16:54 Partly Cloudy 6 -14.4 -4 -20 63 63 NNE 15 24 30.55 1035 10 16.0934 0 0
5:54 pm 17:54 Sunny 4 -15.6 -5 -20.6 66 66 NNE 12 19 30.57 1035 10 16.0934 0 0
6:54 pm 18:54 Mostly Clear 4 -15.6 -4 -20 69 69 NNE 16 26 30.58 1036 10 16.0934 0 0
7:45 pm 19:45 Mostly Cloudy with Light Snow 3 -16.1 -3 -19.4 76 76 NNE 17 28 30.64 1037 3 4.82802 0.001 0.001
7:54 pm 19:54 Cloudy with Light Snow 3 -16.1 -4 -20 72 72 NNE 16 26 30.59 1036 6 9.65604 0.001 0.001
8:54 pm 20:54 Clear 0 -17.8 -6 -21.1 76 76 NNE 12 19 30.61 1037 10 16.0934 0.001 0.001
9:54 pm 21:54 Partly Cloudy 1 -17.2 -7 -21.7 68 68 N 15 24 30.64 1038 10 16.0934 0 0
10:54 pm 22:54 Cloudy 1 -17.2 -6 -21.1 72 72 N 10 17 30.66 1038 8 12.87472 0 0
11:54 pm 23:54 Cloudy with Light Snow 0 -17.8 -7 -21.7 72 72 N 14 22 30.65 1038 5 8.0467 0.001 0.001

Powered by AerisWeather